Time,TemperatureF,DewpointF,PressureIn,WindDirection,WindDirectionDegrees,WindSpeedMPH,WindSpeedGustMPH,Humidity,HourlyPrecipIn,Conditions,Clouds,dailyrainin,SoftwareType,DateUTC
2013-03-05 00:12:00,29.0,15.0,-100.00,NNW,340,6.0,16.0,54,-99.99,,,-99.99,,2013-03-05 05:12:00,
2013-03-05 00:22:00,29.0,15.0,-100.00,NNW,340,6.0,16.0,54,-99.99,,,-99.99,,2013-03-05 05:22:00,
2013-03-05 00:32:00,29.0,15.0,-100.00,NNW,330,7.0,15.0,55,-99.99,,,-99.99,,2013-03-05 05:32:00,
2013-03-05 00:42:00,29.0,15.0,-100.00,NNW,335,9.0,20.0,55,-99.99,,,-99.99,,2013-03-05 05:42:00,
2013-03-05 00:52:00,29.0,15.0,-100.00,NNW,335,9.0,20.0,55,-99.99,,,-99.99,,2013-03-05 05:52:00,
2013-03-05 01:02:00,29.0,15.0,-100.00,WNW,290,4.0,15.0,56,-99.99,,,-99.99,,2013-03-05 06:02:00,
2013-03-05 01:11:00,29.0,15.0,-100.00,NW,315,5.0,14.0,56,-99.99,,,-99.99,,2013-03-05 06:11:00,
2013-03-05 01:22:00,29.0,15.0,-100.00,NW,315,5.0,14.0,56,-99.99,,,-99.99,,2013-03-05 06:22:00,
2013-03-05 01:32:00,29.0,15.0,-100.00,WNW,295,5.0,16.0,56,-99.99,,,-99.99,,2013-03-05 06:32:00,
2013-03-05 01:42:00,29.0,15.0,-100.00,WNW,300,7.0,19.0,56,-99.99,,,-99.99,,2013-03-05 06:42:00,
2013-03-05 01:52:00,29.0,16.0,-100.00,NW,305,6.0,15.0,57,-99.99,,,-99.99,,2013-03-05 06:52:00,
2013-03-05 02:01:00,29.0,16.0,-100.00,NW,305,6.0,15.0,57,-99.99,,,-99.99,,2013-03-05 07:01:00,
2013-03-05 02:11:00,29.0,16.0,-100.00,NW,305,6.0,14.0,57,-99.99,,,-99.99,,2013-03-05 07:11:00,
2013-03-05 02:22:00,29.0,16.0,-100.00,NW,305,6.0,14.0,57,-99.99,,,-99.99,,2013-03-05 07:22:00,
2013-03-05 02:32:00,29.0,16.0,-100.00,NW,315,7.0,16.0,57,-99.99,,,-99.99,,2013-03-05 07:32:00,
2013-03-05 02:42:00,29.0,16.0,-100.00,NW,315,8.0,16.0,57,-99.99,,,-99.99,,2013-03-05 07:42:00,
2013-03-05 02:51:00,29.0,16.0,-100.00,NW,305,7.0,23.0,57,-99.99,,,-99.99,,2013-03-05 07:51:00,
2013-03-05 03:02:00,29.0,16.0,-100.00,NW,305,7.0,23.0,57,-99.99,,,-99.99,,2013-03-05 08:02:00,
2013-03-05 03:11:00,29.0,15.0,-100.00,NW,305,5.0,17.0,57,-99.99,,,-99.99,,2013-03-05 08:11:00,
2013-03-05 03:21:00,29.0,15.0,-100.00,NW,305,5.0,17.0,57,-99.99,,,-99.99,,2013-03-05 08:21:00,
2013-03-05 03:42:00,28.0,16.0,-100.00,NW,310,9.0,18.0,58,-99.99,,,-99.99,,2013-03-05 08:42:00,
2013-03-05 03:52:00,28.0,16.0,-100.00,NW,310,9.0,18.0,58,-99.99,,,-99.99,,2013-03-05 08:52:00,
2013-03-05 04:02:00,28.0,16.0,-100.00,NW,325,7.0,21.0,59,-99.99,,,-99.99,,2013-03-05 09:02:00,
2013-03-05 04:11:00,28.0,16.0,-100.00,NW,310,7.0,18.0,59,-99.99,,,-99.99,,2013-03-05 09:11:00,
2013-03-05 04:21:00,28.0,16.0,-100.00,NW,310,7.0,18.0,59,-99.99,,,-99.99,,2013-03-05 09:21:00,
2013-03-05 04:32:00,28.0,16.0,-100.00,NNE,30,2.0,17.0,60,-99.99,,,-99.99,,2013-03-05 09:32:00,
2013-03-05 04:43:00,28.0,16.0,-100.00,WSW,250,2.0,11.0,60,-99.99,,,-99.99,,2013-03-05 09:43:00,
2013-03-05 04:52:00,28.0,16.0,-100.00,WSW,250,2.0,11.0,60,-99.99,,,-99.99,,2013-03-05 09:52:00,
2013-03-05 05:02:00,27.0,15.0,-100.00,WNW,285,5.0,13.0,60,-99.99,,,-99.99,,2013-03-05 10:02:00,
2013-03-05 05:11:00,27.0,16.0,-100.00,NW,320,2.0,10.0,61,-99.99,,,-99.99,,2013-03-05 10:11:00,
2013-03-05 05:22:00,27.0,16.0,-100.00,NW,320,2.0,10.0,61,-99.99,,,-99.99,,2013-03-05 10:22:00,
2013-03-05 05:32:00,27.0,16.0,-100.00,WSW,255,4.0,9.0,62,-99.99,,,-99.99,,2013-03-05 10:32:00,
2013-03-05 05:42:00,27.0,16.0,-100.00,SW,235,2.0,9.0,62,-99.99,,,-99.99,,2013-03-05 10:42:00,
2013-03-05 05:52:00,27.0,16.0,-100.00,SW,235,2.0,9.0,62,-99.99,,,-99.99,,2013-03-05 10:52:00,
2013-03-05 06:12:00,27.0,16.0,-100.00,NW,305,6.0,12.0,62,-99.99,,,-99.99,,2013-03-05 11:12:00,
2013-03-05 06:22:00,27.0,16.0,-100.00,NW,305,6.0,12.0,62,-99.99,,,-99.99,,2013-03-05 11:22:00,
2013-03-05 06:32:00,27.0,16.0,-100.00,NW,310,6.0,13.0,63,-99.99,,,-99.99,,2013-03-05 11:32:00,
2013-03-05 06:42:00,27.0,17.0,-100.00,WNW,300,6.0,11.0,64,-99.99,,,-99.99,,2013-03-05 11:42:00,
2013-03-05 06:52:00,27.0,17.0,-100.00,WNW,300,6.0,11.0,64,-99.99,,,-99.99,,2013-03-05 11:52:00,
2013-03-05 07:02:00,27.0,17.0,-100.00,NW,310,9.0,15.0,63,-99.99,,,-99.99,,2013-03-05 12:02:00,
2013-03-05 07:12:00,27.0,16.0,-100.00,WNW,285,6.0,17.0,63,-99.99,,,-99.99,,2013-03-05 12:12:00,
2013-03-05 07:22:00,27.0,16.0,-100.00,WNW,285,6.0,17.0,63,-99.99,,,-99.99,,2013-03-05 12:22:00,
2013-03-05 07:32:00,27.0,16.0,-100.00,NW,310,5.0,12.0,63,-99.99,,,-99.99,,2013-03-05 12:32:00,
2013-03-05 07:42:00,27.0,16.0,-100.00,SW,230,3.0,12.0,63,-99.99,,,-99.99,,2013-03-05 12:42:00,
2013-03-05 07:52:00,27.0,16.0,-100.00,SW,230,3.0,12.0,63,-99.99,,,-99.99,,2013-03-05 12:52:00,
2013-03-05 08:02:00,28.0,17.0,-100.00,NW,325,5.0,12.0,63,-99.99,,,-99.99,,2013-03-05 13:02:00,
2013-03-05 08:12:00,29.0,17.0,-100.00,NNW,330,3.0,9.0,61,-99.99,,,-99.99,,2013-03-05 13:12:00,
2013-03-05 08:22:00,29.0,17.0,-100.00,NNW,330,3.0,9.0,61,-99.99,,,-99.99,,2013-03-05 13:22:00,
2013-03-05 08:32:00,29.0,17.0,-100.00,NNW,330,8.0,15.0,60,-99.99,,,-99.99,,2013-03-05 13:32:00,
2013-03-05 08:42:00,29.0,16.0,-100.00,North,0,8.0,15.0,59,-99.99,,,-99.99,,2013-03-05 13:42:00,
2013-03-05 08:52:00,29.0,16.0,-100.00,North,0,8.0,15.0,59,-99.99,,,-99.99,,2013-03-05 13:52:00,
2013-03-05 09:02:00,30.0,17.0,-100.00,North,350,9.0,16.0,58,-99.99,,,-99.99,,2013-03-05 14:02:00,
2013-03-05 09:11:00,30.0,17.0,-100.00,NNW,340,8.0,13.0,57,-99.99,,,-99.99,,2013-03-05 14:11:00,
2013-03-05 09:22:00,30.0,17.0,-100.00,NNW,340,8.0,13.0,57,-99.99,,,-99.99,,2013-03-05 14:22:00,
2013-03-05 09:32:00,31.0,17.0,-100.00,NNE,15,8.0,13.0,55,-99.99,,,-99.99,,2013-03-05 14:32:00,
2013-03-05 09:42:00,31.0,17.0,-100.00,NW,305,8.0,15.0,55,-99.99,,,-99.99,,2013-03-05 14:42:00,
2013-03-05 09:52:00,31.0,17.0,-100.00,NW,305,8.0,15.0,55,-99.99,,,-99.99,,2013-03-05 14:52:00,
2013-03-05 10:02:00,33.0,18.0,-100.00,WSW,245,6.0,12.0,54,-99.99,,,-99.99,,2013-03-05 15:02:00,
2013-03-05 10:11:00,33.0,18.0,-100.00,North,5,5.0,12.0,53,-99.99,,,-99.99,,2013-03-05 15:11:00,
2013-03-05 10:22:00,33.0,18.0,-100.00,North,5,5.0,12.0,53,-99.99,,,-99.99,,2013-03-05 15:22:00,
2013-03-05 10:32:00,34.0,18.0,-100.00,NNE,20,2.0,13.0,52,-99.99,,,-99.99,,2013-03-05 15:32:00,
2013-03-05 10:42:00,35.0,18.0,-100.00,NE,35,3.0,10.0,50,-99.99,,,-99.99,,2013-03-05 15:42:00,
2013-03-05 10:52:00,35.0,18.0,-100.00,NE,35,3.0,10.0,50,-99.99,,,-99.99,,2013-03-05 15:52:00,
2013-03-05 11:02:00,35.0,18.0,-100.00,North,350,6.0,11.0,49,-99.99,,,-99.99,,2013-03-05 16:02:00,
2013-03-05 11:11:00,36.0,19.0,-100.00,NW,325,4.0,9.0,49,-99.99,,,-99.99,,2013-03-05 16:11:00,
2013-03-05 11:22:00,36.0,19.0,-100.00,NW,325,4.0,9.0,49,-99.99,,,-99.99,,2013-03-05 16:22:00,
2013-03-05 11:32:00,37.0,19.0,-100.00,NNE,25,3.0,9.0,47,-99.99,,,-99.99,,2013-03-05 16:32:00,
2013-03-05 11:42:00,37.0,19.0,-100.00,North,0,3.0,11.0,47,-99.99,,,-99.99,,2013-03-05 16:42:00,
2013-03-05 11:52:00,37.0,19.0,-100.00,North,0,3.0,11.0,47,-99.99,,,-99.99,,2013-03-05 16:52:00,
2013-03-05 12:01:00,38.0,19.0,-100.00,NNW,340,5.0,12.0,46,-99.99,,,-99.99,,2013-03-05 17:01:00,
2013-03-05 12:11:00,38.0,18.0,-100.00,WNW,290,4.0,7.0,45,-99.99,,,-99.99,,2013-03-05 17:11:00,
2013-03-05 12:22:00,38.0,18.0,-100.00,WNW,290,4.0,7.0,45,-99.99,,,-99.99,,2013-03-05 17:22:00,
2013-03-05 12:32:00,39.0,19.0,-100.00,North,5,2.0,9.0,44,-99.99,,,-99.99,,2013-03-05 17:32:00,
2013-03-05 12:42:00,39.0,19.0,-100.00,North,0,3.0,7.0,44,-99.99,,,-99.99,,2013-03-05 17:42:00,
2013-03-05 12:52:00,39.0,19.0,-100.00,North,0,3.0,7.0,44,-99.99,,,-99.99,,2013-03-05 17:52:00,
2013-03-05 13:02:00,40.0,19.0,-100.00,North,5,4.0,6.0,43,-99.99,,,-99.99,,2013-03-05 18:02:00,
2013-03-05 13:11:00,40.0,19.0,-100.00,North,5,4.0,6.0,43,-99.99,,,-99.99,,2013-03-05 18:11:00,
2013-03-05 13:32:00,40.0,20.0,-100.00,ENE,70,3.0,9.0,43,-99.99,,,-99.99,,2013-03-05 18:32:00,
2013-03-05 13:42:00,41.0,20.0,-100.00,NNW,340,3.0,8.0,42,-99.99,,,-99.99,,2013-03-05 18:42:00,
2013-03-05 13:52:00,41.0,20.0,-100.00,NNW,340,3.0,8.0,42,-99.99,,,-99.99,,2013-03-05 18:52:00,
2013-03-05 14:02:00,41.0,19.0,-100.00,ESE,105,4.0,7.0,41,-99.99,,,-99.99,,2013-03-05 19:02:00,
2013-03-05 14:11:00,42.0,20.0,-100.00,ENE,60,6.0,9.0,41,-99.99,,,-99.99,,2013-03-05 19:11:00,
2013-03-05 14:22:00,42.0,20.0,-100.00,ENE,60,6.0,9.0,41,-99.99,,,-99.99,,2013-03-05 19:22:00,
2013-03-05 14:32:00,42.0,20.0,-100.00,NE,35,3.0,5.0,40,-99.99,,,-99.99,,2013-03-05 19:32:00,
2013-03-05 14:42:00,42.0,19.0,-100.00,NW,310,2.0,8.0,39,-99.99,,,-99.99,,2013-03-05 19:42:00,
2013-03-05 14:52:00,42.0,19.0,-100.00,NW,310,2.0,8.0,39,-99.99,,,-99.99,,2013-03-05 19:52:00,
2013-03-05 15:01:00,42.0,19.0,-100.00,ESE,115,3.0,7.0,39,-99.99,,,-99.99,,2013-03-05 20:01:00,
2013-03-05 15:11:00,43.0,20.0,-100.00,NE,50,4.0,10.0,39,-99.99,,,-99.99,,2013-03-05 20:11:00,
2013-03-05 15:22:00,43.0,20.0,-100.00,NE,50,4.0,10.0,39,-99.99,,,-99.99,,2013-03-05 20:22:00,
2013-03-05 15:32:00,43.0,19.0,-100.00,East,85,2.0,8.0,38,-99.99,,,-99.99,,2013-03-05 20:32:00,
2013-03-05 15:42:00,45.0,20.0,-100.00,NE,55,4.0,8.0,37,-99.99,,,-99.99,,2013-03-05 20:42:00,
2013-03-05 15:52:00,45.0,20.0,-100.00,NE,55,4.0,8.0,37,-99.99,,,-99.99,,2013-03-05 20:52:00,
2013-03-05 16:02:00,44.0,19.0,-100.00,NE,55,6.0,11.0,37,-99.99,,,-99.99,,2013-03-05 21:02:00,
2013-03-05 16:11:00,45.0,20.0,-100.00,North,5,3.0,8.0,37,-99.99,,,-99.99,,2013-03-05 21:11:00,
2013-03-05 16:22:00,45.0,20.0,-100.00,North,5,3.0,8.0,37,-99.99,,,-99.99,,2013-03-05 21:22:00,
2013-03-05 16:32:00,44.0,19.0,-100.00,ENE,70,3.0,10.0,37,-99.99,,,-99.99,,2013-03-05 21:32:00,
2013-03-05 16:42:00,44.0,19.0,-100.00,NE,45,5.0,7.0,36,-99.99,,,-99.99,,2013-03-05 21:42:00,
2013-03-05 16:52:00,44.0,19.0,-100.00,NE,45,5.0,7.0,36,-99.99,,,-99.99,,2013-03-05 21:52:00,
2013-03-05 17:01:00,44.0,19.0,-100.00,NNE,30,4.0,7.0,37,-99.99,,,-99.99,,2013-03-05 22:01:00,
2013-03-05 17:12:00,43.0,19.0,-100.00,North,350,2.0,7.0,37,-99.99,,,-99.99,,2013-03-05 22:12:00,
2013-03-05 17:22:00,43.0,19.0,-100.00,North,350,2.0,7.0,37,-99.99,,,-99.99,,2013-03-05 22:22:00,
2013-03-05 17:32:00,43.0,18.0,-100.00,ENE,65,6.0,10.0,37,-99.99,,,-99.99,,2013-03-05 22:32:00,
2013-03-05 17:42:00,42.0,18.0,-100.00,NE,35,3.0,9.0,38,-99.99,,,-99.99,,2013-03-05 22:42:00,
2013-03-05 17:52:00,42.0,18.0,-100.00,NE,35,3.0,9.0,38,-99.99,,,-99.99,,2013-03-05 22:52:00,
2013-03-05 18:01:00,42.0,19.0,-100.00,East,85,6.0,9.0,38,-99.99,,,-99.99,,2013-03-05 23:01:00,
2013-03-05 18:11:00,41.0,18.0,-100.00,ENE,65,3.0,8.0,39,-99.99,,,-99.99,,2013-03-05 23:11:00,
2013-03-05 18:22:00,41.0,18.0,-100.00,ENE,65,3.0,8.0,39,-99.99,,,-99.99,,2013-03-05 23:22:00,
2013-03-05 18:32:00,41.0,18.0,-100.00,NE,45,2.0,6.0,40,-99.99,,,-99.99,,2013-03-05 23:32:00,
2013-03-05 18:42:00,40.0,18.0,-100.00,NE,40,1.0,3.0,40,-99.99,,,-99.99,,2013-03-05 23:42:00,
2013-03-05 18:53:00,40.0,18.0,-100.00,ENE,75,2.0,5.0,41,-99.99,,,-99.99,,2013-03-05 23:53:00,
2013-03-05 19:02:00,40.0,18.0,-100.00,ENE,75,2.0,5.0,41,-99.99,,,-99.99,,2013-03-06 00:02:00,
2013-03-05 19:11:00,39.0,18.0,-100.00,ENE,65,3.0,5.0,42,-99.99,,,-99.99,,2013-03-06 00:11:00,
2013-03-05 19:22:00,39.0,18.0,-100.00,ENE,65,3.0,5.0,42,-99.99,,,-99.99,,2013-03-06 00:22:00,
2013-03-05 19:32:00,38.0,18.0,-100.00,ENE,75,3.0,5.0,43,-99.99,,,-99.99,,2013-03-06 00:32:00,
2013-03-05 19:42:00,37.0,18.0,-100.00,East,85,4.0,5.0,44,-99.99,,,-99.99,,2013-03-06 00:42:00,
2013-03-05 19:52:00,37.0,18.0,-100.00,East,85,4.0,5.0,44,-99.99,,,-99.99,,2013-03-06 00:52:00,
2013-03-05 20:02:00,37.0,18.0,-100.00,East,80,4.0,6.0,46,-99.99,,,-99.99,,2013-03-06 01:02:00,
2013-03-05 20:11:00,36.0,18.0,-100.00,East,90,4.0,6.0,47,-99.99,,,-99.99,,2013-03-06 01:11:00,
2013-03-05 20:22:00,36.0,18.0,-100.00,East,90,4.0,6.0,47,-99.99,,,-99.99,,2013-03-06 01:22:00,
2013-03-05 20:32:00,36.0,18.0,-100.00,East,85,6.0,10.0,47,-99.99,,,-99.99,,2013-03-06 01:32:00,
2013-03-05 20:42:00,35.0,18.0,-100.00,East,90,6.0,8.0,49,-99.99,,,-99.99,,2013-03-06 01:42:00,
2013-03-05 20:52:00,36.0,19.0,-100.00,East,85,7.0,9.0,49,-99.99,,,-99.99,,2013-03-06 01:52:00,
2013-03-05 21:01:00,36.0,19.0,-100.00,East,85,7.0,9.0,49,-99.99,,,-99.99,,2013-03-06 02:01:00,
2013-03-05 21:11:00,36.0,19.0,-100.00,East,85,8.0,11.0,49,-99.99,,,-99.99,,2013-03-06 02:11:00,
2013-03-05 21:22:00,36.0,19.0,-100.00,East,85,8.0,11.0,49,-99.99,,,-99.99,,2013-03-06 02:22:00,
2013-03-05 21:32:00,36.0,19.0,-100.00,East,90,7.0,11.0,49,-99.99,,,-99.99,,2013-03-06 02:32:00,
2013-03-05 21:42:00,35.0,18.0,-100.00,East,85,5.0,9.0,50,-99.99,,,-99.99,,2013-03-06 02:42:00,
2013-03-05 21:52:00,35.0,18.0,-100.00,East,85,5.0,9.0,50,-99.99,,,-99.99,,2013-03-06 02:52:00,
2013-03-05 22:02:00,35.0,19.0,-100.00,East,95,7.0,10.0,51,-99.99,,,-99.99,,2013-03-06 03:02:00,
2013-03-05 22:11:00,36.0,19.0,-100.00,East,90,6.0,9.0,50,-99.99,,,-99.99,,2013-03-06 03:11:00,
2013-03-05 22:22:00,36.0,19.0,-100.00,East,90,6.0,9.0,50,-99.99,,,-99.99,,2013-03-06 03:22:00,
2013-03-05 22:32:00,35.0,19.0,-100.00,ESE,105,3.0,6.0,51,-99.99,,,-99.99,,2013-03-06 03:32:00,
2013-03-05 22:42:00,35.0,19.0,-100.00,East,100,3.0,7.0,51,-99.99,,,-99.99,,2013-03-06 03:42:00,
2013-03-05 22:52:00,35.0,19.0,-100.00,East,100,3.0,7.0,51,-99.99,,,-99.99,,2013-03-06 03:52:00,
2013-03-05 23:02:00,35.0,19.0,-100.00,East,100,4.0,7.0,52,-99.99,,,-99.99,,2013-03-06 04:02:00,
2013-03-05 23:11:00,35.0,19.0,-100.00,ESE,115,6.0,9.0,53,-99.99,,,-99.99,,2013-03-06 04:11:00,
2013-03-05 23:22:00,35.0,19.0,-100.00,ESE,115,6.0,9.0,53,-99.99,,,-99.99,,2013-03-06 04:22:00,
2013-03-05 23:32:00,35.0,19.0,-100.00,East,90,7.0,12.0,53,-99.99,,,-99.99,,2013-03-06 04:32:00,
2013-03-05 23:42:00,34.0,19.0,-100.00,East,95,7.0,11.0,53,-99.99,,,-99.99,,2013-03-06 04:42:00,
2013-03-05 23:52:00,34.0,19.0,-100.00,East,95,7.0,11.0,53,-99.99,,,-99.99,,2013-03-06 04:52:00,